Location: Peterborough
(44.3091°N, 78.3197°W)
Time: 05:03:27
(UTC-04:00)

Vanguard 3 - Pass Details

Date: 26 February 2024
Orbit: 510 x 3236 km, 33.3° (Epoch: 12 April)

Event Time Altitude Azimuth Distance (km) Brightness Sun altitude
Rises 17:03:13 0° 180° (S) 6,173 11.9 8.4°
Reaches altitude 10° 17:09:42 10° 162° (SSE) 5,618 11.5 7.3°
Maximum altitude 17:18:41 16° 131° (SE) 5,502 11.1 5.8°
Drops below altitude 10° 17:28:20 10° 101° (E) 6,170 11.1 4.1°
Sets 17:35:58 0° 84° (E) 7,083 11.3 2.8°
